 day,  time,  air_temp(C),  RH(%),  ground_temp10cm(C),  ground_temp20cm(C),  ground_temp40cm(C),  precipitation(mm/h),  Solar_Radiation(MJ/m2h),  lack, 
 04/09/01, 01:00,  17.1,  98,  20.0,  20.8,  20.4,   0.0,  0.00, 
 04/09/01, 02:00,  16.7,  98,  19.8,  20.6,  20.4,   0.0,  0.00, 
 04/09/01, 03:00,  16.6,  98,  19.7,  20.7,  20.4,   0.0,  0.00, 
 04/09/01, 04:00,  16.4,  99,  19.5,  20.6,  20.3,   0.0,  0.00, 
 04/09/01, 05:00,  16.4,  99,  19.4,  20.4,  20.3,   0.0,  0.00, 
 04/09/01, 06:00,  16.3,  99,  19.1,  20.3,  20.3,   0.0,  0.00, 
 04/09/01, 07:00,  18.0,  94,  19.0,  20.2,  20.2,   0.0,  0.35, 
 04/09/01, 08:00,  19.3,  84,  19.0,  20.1,  20.3,   0.0,  1.28, 
 04/09/01, 09:00,  20.5,  79,  19.1,  20.0,  20.4,   0.0,  1.98, 
 04/09/01, 10:00,  21.4,  76,  19.4,  20.0,  20.4,   0.0,  2.10, 
 04/09/01, 11:00,  21.9,  75,  19.9,  20.0,  20.4,   0.0,  2.39, 
 04/09/01, 12:00,  21.8,  77,  20.6,  20.0,  20.4,   0.0,  1.71, 
 04/09/01, 13:00,  21.0,  83,  21.1,  20.0,  20.2,   0.0,  1.31, 
 04/09/01, 14:00,  21.4,  84,  21.3,  20.1,  20.2,   0.0,  0.94, 
 04/09/01, 15:00,  20.2,  84,  21.6,  20.2,  20.1,   0.0,  0.80, 
 04/09/01, 16:00,  20.2,  89,  21.6,  20.4,  20.1,   0.0,  0.43, 
 04/09/01, 17:00,  19.5,  93,  21.6,  20.4,  20.1,   0.0,  0.22, 
 04/09/01, 18:00,  18.8,  97,  21.6,  20.6,  20.0,   0.0,  0.16, 
 04/09/01, 19:00,  18.1,  99,  21.5,  20.7,  20.1,   0.0,  0.00, 
 04/09/01, 20:00,  18.0,  89,  21.3,  20.7,  20.3,   0.0,  0.00, 
 04/09/01, 21:00,  16.9,  97,  21.1,  20.8,  20.3,   0.0,  0.00, 
 04/09/01, 22:00,  16.5,  99,  20.8,  20.8,  20.3,   0.0,  0.00, 
 04/09/01, 23:00,  15.8,  99,  20.8,  20.8,  20.3,   0.0,  0.00, 
 04/09/02, 00:00,  17.0,  75,  20.6,  20.7,  20.2,   0.0,  0.00, 
 04/09/02, 01:00,  14.5,  99,  20.4,  20.7,  20.2,   0.5,  0.00, 
 04/09/02, 02:00,  14.3,  99,  20.3,  20.7,  20.2,   0.5,  0.00, 
 04/09/02, 03:00,  14.0,  99,  20.0,  20.5,  20.2,   6.5,  0.00, 
 04/09/02, 04:00,  14.2,  99,  19.5,  20.4,  20.1,  10.0,  0.00, 
 04/09/02, 05:00,  14.0,  99,  19.0,  20.3,  20.0,   3.0,  0.00, 
 04/09/02, 06:00,  14.2,  99,  18.7,  20.2,  20.0,   2.0,  0.00, 
 04/09/02, 07:00,  14.7,  99,  18.6,  20.0,  20.2,   0.5,  0.01, 
 04/09/02, 08:00,  14.5,  99,  18.5,  19.9,  20.1,   2.5,  0.08, 
 04/09/02, 09:00,  14.9,  99,  18.5,  19.8,  19.9,   0.0,  0.18, 
 04/09/02, 10:00,  15.2,  99,  18.5,  19.7,  20.1,   0.5,  0.28, 
 04/09/02, 11:00,  14.6,  99,  18.5,  19.7,  20.0,   1.0,  0.17, 
 04/09/02, 12:00,  14.4,  99,  18.5,  19.6,  20.2,   1.0,  0.31, 
 04/09/02, 13:00,  14.0,  99,  18.5,  19.5,  20.1,   1.5,  0.30, 
 04/09/02, 14:00,  13.6,  99,  18.5,  19.5,  20.0,   1.5,  0.28, 
 04/09/02, 15:00,  12.5,  99,  18.5,  19.4,  20.1,   1.0,  0.36, 
 04/09/02, 16:00,  12.9,  99,  18.4,  19.3,  20.0,   1.0,  0.31, 
 04/09/02, 17:00,  13.1,  99,  18.4,  19.2,  20.0,   0.0,  0.42, 
 04/09/02, 18:00,  12.6,  99,  18.4,  19.3,  19.9,   0.0,  0.16, 
 04/09/02, 19:00,  11.8,  99,  18.3,  19.1,  19.8,   0.0,  0.00, 
 04/09/02, 20:00,  10.9,  99,  18.1,  19.1,  19.9,   0.0,  0.00, 
 04/09/02, 21:00,  10.8,  99,  17.9,  19.1,  19.8,   0.0,  0.00, 
 04/09/02, 22:00,  11.0,  99,  17.7,  19.0,  19.8,   0.0,  0.00, 
 04/09/02, 23:00,  11.0,  99,  17.5,  18.9,  19.8,   0.0,  0.00, 
 04/09/03, 00:00,  11.0,  99,  17.3,  18.9,  19.8,   0.0,  0.00, 
 04/09/03, 01:00,  10.5,  99,  17.1,  18.8,  19.8,   0.0,  0.00, 
 04/09/03, 02:00,   9.9,  99,  16.9,  18.7,  19.7,   0.0,  0.00, 
 04/09/03, 03:00,   9.7,  99,  16.7,  18.6,  19.7,   0.0,  0.00, 
 04/09/03, 04:00,   9.3,  99,  16.5,  18.5,  19.7,   0.0,  0.00, 
 04/09/03, 05:00,  10.3,  95,  16.4,  18.4,  19.7,   0.0,  0.00, 
 04/09/03, 06:00,  10.3,  95,  16.2,  18.3,  19.6,   0.0,  0.00, 
 04/09/03, 07:00,  12.1,  99,  16.0,  18.2,  19.6,   0.0,  0.51, 
 04/09/03, 08:00,  15.4,  89,  16.0,  18.1,  19.7,   0.5,  1.38, 
 04/09/03, 09:00,  16.5,  77,  16.0,  18.0,  19.6,   0.0,  2.12, 
 04/09/03, 10:00,  17.9,  85,  16.2,  17.9,  19.6,   0.0,  2.73, 
 04/09/03, 11:00,  19.1,  85,  16.9,  17.8,  19.6,   0.0,  3.13, 
 04/09/03, 12:00,  20.5,  77,  18.0,  17.8,  19.5,   0.0,  3.16, 
 04/09/03, 13:00,  21.4,  64,  19.3,  17.8,  19.5,   0.0,  3.26, 
 04/09/03, 14:00,  21.2,  53,  20.0,  18.0,  19.5,   0.0,  2.99, 
 04/09/03, 15:00,  21.9,  56,  20.1,  18.2,  19.4,   0.0,  2.16, 
 04/09/03, 16:00,  20.3,  60,  20.1,  18.4,  19.4,   0.0,  1.28, 
 04/09/03, 17:00,  18.4,  74,  20.2,  18.6,  19.4,   0.0,  0.54, 
 04/09/03, 18:00,  16.3,  89,  20.1,  18.8,  19.2,   0.0,  0.19, 
 04/09/03, 19:00,  15.3,  89,  20.0,  19.0,  19.2,   0.0,  0.00, 
 04/09/03, 20:00,  15.2,  92,  19.7,  19.1,  19.2,   0.0,  0.00, 
 04/09/03, 21:00,  16.1,  87,  19.5,  19.1,  19.1,   0.0,  0.00, 
 04/09/03, 22:00,  15.9,  93,  19.3,  19.1,  19.2,   0.0,  0.00, 
 04/09/03, 23:00,  16.4,  90,  19.0,  19.3,  19.2,   0.0,  0.00, 
 04/09/04, 00:00,  16.1,  92,  18.9,  19.1,  19.2,   0.0,  0.00, 
 04/09/04, 01:00,  15.3,  99,  18.8,  19.1,  19.1,   0.0,  0.00, 
 04/09/04, 02:00,  15.6,  97,  18.7,  19.1,  19.1,   0.0,  0.00, 
 04/09/04, 03:00,  15.6,  98,  18.6,  19.1,  19.1,   0.0,  0.00, 
 04/09/04, 04:00,  15.3,  99,  18.5,  19.0,  19.1,   0.0,  0.00, 
 04/09/04, 05:00,  16.9,  94,  18.4,  19.0,  19.1,   0.0,  0.00, 
 04/09/04, 06:00,  17.1,  92,  18.3,  19.0,  19.1,   0.0,  0.00, 
 04/09/04, 07:00,  18.3,  86,  18.2,  18.9,  19.1,   0.0,  0.24, 
 04/09/04, 08:00,  19.5,  85,  18.3,  18.9,  19.2,   0.0,  0.52, 
 04/09/04, 09:00,  20.4,  80,  18.4,  18.8,  19.0,   0.0,  1.82, 
 04/09/04, 10:00,  21.5,  84,  18.6,  18.8,  19.0,   0.0,  2.06, 
 04/09/04, 11:00,  20.7,  84,  19.1,  18.8,  19.1,   0.0,  1.60, 
 04/09/04, 12:00,  21.2,  79,  19.7,  18.8,  19.1,   0.0,  1.52, 
 04/09/04, 13:00,  21.8,  84,  20.0,  18.9,  19.1,   0.0,  1.41, 
 04/09/04, 14:00,  18.4,  99,  20.4,  19.0,  19.0,   0.0,  0.55, 
 04/09/04, 15:00,  16.8,  99,  20.5,  19.1,  19.0,   7.0,  0.17, 
 04/09/04, 16:00,  16.9,  99,  20.3,  19.3,  19.2,   3.5,  0.00, 
 04/09/04, 17:00,  16.3,  88,  20.0,  19.5,  19.1,   1.5,  0.00, 
 04/09/04, 18:00,  14.5,  99,  19.7,  19.5,  19.1,   0.0,  0.04, 
 04/09/04, 19:00,  14.5,  99,  19.7,  19.4,  19.0,   0.0,  0.00, 
 04/09/04, 20:00,  14.5,  99,  19.5,  19.5,  18.9,   0.0,  0.00, 
 04/09/04, 21:00,  15.2,  92,  19.3,  19.5,  19.1,   0.0,  0.00, 
 04/09/04, 22:00,  13.8,  99,  19.1,  19.5,  19.1,   0.5,  0.00, 
 04/09/04, 23:00,  13.6,  99,  19.0,  19.5,  19.1,   0.0,  0.00, 
 04/09/05, 00:00,  13.7,  99,  18.8,  19.4,  19.1,   0.5,  0.00, 
 04/09/05, 01:00,  14.7,  98,  18.7,  19.3,  19.0,   0.0,  0.00, 
 04/09/05, 02:00,  14.4,  99,  18.5,  19.2,  19.0,   3.0,  0.00, 
 04/09/05, 03:00,  15.6,  99,  18.3,  19.1,  19.0,   4.0,  0.00, 
 04/09/05, 04:00,  15.9,  99,  18.1,  19.1,  19.0,   0.0,  0.00, 
 04/09/05, 05:00,  15.1,  99,  18.1,  19.0,  19.0,   3.0,  0.00, 
 04/09/05, 06:00,  15.2,  99,  17.8,  18.8,  19.2,  13.5,  0.00, 
 04/09/05, 07:00,  16.3,  99,  17.5,  18.7,  19.1,   4.5,  0.02, 
 04/09/05, 08:00,  16.6,  99,  17.5,  18.6,  19.0,   0.5,  0.32, 
 04/09/05, 09:00,  16.9,  99,  17.6,  18.5,  19.0,   2.5,  0.41, 
 04/09/05, 10:00,  16.9,  99,  17.7,  18.4,  19.0,   4.5,  0.42, 
 04/09/05, 11:00,  17.0,  99,  17.8,  18.3,  19.0,   1.0,  0.57, 
 04/09/05, 12:00,  15.1,  99,  17.9,  18.2,  18.9,  17.5,  0.23, 
 04/09/05, 13:00,  15.1,  99,  17.8,  18.2,  18.9,   7.0,  0.40, 
 04/09/05, 14:00,  17.3,  99,  17.7,  18.1,  18.8,   0.5,  1.23, 
 04/09/05, 15:00,  16.7,  99,  17.9,  18.1,  18.7,   1.0,  0.53, 
 04/09/05, 16:00,  16.9,  99,  18.1,  18.1,  18.7,   1.0,  0.36, 
 04/09/05, 17:00,  16.9,  99,  18.2,  18.1,  18.7,   1.0,  0.22, 
 04/09/05, 18:00,  17.0,  99,  18.2,  18.1,  18.7,   0.0,  0.13, 
 04/09/05, 19:00,  16.4,  99,  18.2,  18.2,  18.7,   0.0,  0.00, 
 04/09/05, 20:00,  16.5,  99,  18.2,  18.2,  18.7,   0.5,  0.00, 
 04/09/05, 21:00,  16.3,  99,  18.1,  18.2,  18.6,   0.0,  0.00, 
 04/09/05, 22:00,  16.6,  99,  18.0,  18.2,  18.5,   0.0,  0.00, 
 04/09/05, 23:00,  16.3,  99,  18.0,  18.2,  18.5,   0.0,  0.00, 
 04/09/06, 00:00,  15.9,  99,  17.9,  18.2,  18.6,   0.0,  0.00, 
 04/09/06, 01:00,  16.2,  99,  17.8,  18.2,  18.5,   1.5,  0.00, 
 04/09/06, 02:00,  16.0,  99,  17.8,  18.2,  18.5,   1.0,  0.00, 
 04/09/06, 03:00,  15.8,  99,  17.7,  18.2,  18.5,   0.0,  0.00, 
 04/09/06, 04:00,  15.4,  99,  17.7,  18.2,  18.5,   0.0,  0.00, 
 04/09/06, 05:00,  15.5,  99,  17.6,  18.1,  18.5,   0.5,  0.00, 
 04/09/06, 06:00,  16.2,  99,  17.5,  18.1,  18.7,   0.0,  0.00, 
 04/09/06, 07:00,  16.5,  99,  17.4,  18.1,  18.5,   0.0,  0.19, 
 04/09/06, 08:00,  17.7,  99,  17.5,  18.1,  18.5,   0.0,  0.66, 
 04/09/06, 09:00,  19.1,  99,  17.6,  18.0,  18.7,   0.0,  1.16, 
 04/09/06, 10:00,  18.8,  99,  17.9,  18.0,  18.5,   0.0,  0.85, 
 04/09/06, 11:00,  20.5,  94,  18.2,  18.0,  18.7,   0.0,  1.28, 
 04/09/06, 12:00,  21.1,  92,  18.6,  18.0,  18.5,   0.0,  1.59, 
 04/09/06, 13:00,  21.7,  84,  19.1,  18.1,  18.5,   0.0,  2.05, 
 04/09/06, 14:00,  19.2,  99,  19.7,  18.2,  18.4,   0.0,  0.79, 
 04/09/06, 15:00,  20.0,  95,  19.9,  18.3,  18.6,   0.0,  0.97, 
 04/09/06, 16:00,  19.7,  99,  20.0,  18.4,  18.5,   0.0,  0.65, 
 04/09/06, 17:00,  19.1,  98,  20.0,  18.6,  18.5,   0.0,  0.35, 
 04/09/06, 18:00,  18.3,  99,  20.0,  18.7,  18.5,   0.0,  0.09, 
 04/09/06, 19:00,  18.1,  97,  19.9,  18.8,  18.4,   0.0,  0.00, 
 04/09/06, 20:00,  18.2,  94,  19.7,  18.9,  18.6,   0.5,  0.00, 
 04/09/06, 21:00,  18.0,  93,  19.6,  18.9,  18.5,   0.0,  0.00, 
 04/09/06, 22:00,  17.9,  91,  19.5,  19.0,  18.5,   0.0,  0.00, 
 04/09/06, 23:00,  17.5,  92,  19.2,  19.0,  18.5,   0.0,  0.00, 
 04/09/07, 00:00,  17.4,  90,  19.0,  19.0,  18.6,   0.0,  0.00, 
 04/09/07, 01:00,  17.7,  89,  18.9,  19.0,  18.6,   0.0,  0.00, 
 04/09/07, 02:00,  18.0,  86,  18.7,  18.9,  18.7,   0.0,  0.00, 
 04/09/07, 03:00,  18.1,  87,  18.6,  18.9,  18.6,   0.0,  0.00, 
 04/09/07, 04:00,  16.8,  97,  18.5,  18.9,  18.6,   0.0,  0.00, 
 04/09/07, 05:00,  18.4,  86,  18.4,  18.8,  18.6,   0.0,  0.00, 
 04/09/07, 06:00,  17.3,  95,  18.4,  18.8,  18.6,   0.0,  0.00, 
 04/09/07, 07:00,  18.8,  84,  18.3,  18.7,  18.7,   0.0,  0.28, 
 04/09/07, 08:00,  20.1,  84,  18.4,  18.7,  18.7,   0.0,  1.00, 
 04/09/07, 09:00,  21.4,  75,  18.5,  18.7,  18.7,   0.0,  1.64, 
 04/09/07, 10:00,  21.4,  79,  18.9,  18.6,  18.5,   0.0,  1.84, 
 04/09/07, 11:00,  20.6,  84,  19.4,  18.7,  18.6,   0.0,  1.31, 
 04/09/07, 12:00,  19.4,  92,  19.8,  18.7,  18.8,   0.0,  1.34, 
 04/09/07, 13:00,  20.9,  79,  20.1,  18.8,  18.8,   0.5,  1.24, 
 04/09/07, 14:00,  20.9,  78,  20.3,  18.9,  18.8,   0.0,  0.87, 
 04/09/07, 15:00,  20.7,  79,  20.3,  19.0,  18.7,   0.0,  0.56, 
 04/09/07, 16:00,  20.5,  76,  20.3,  19.1,  18.8,   0.5,  0.43, 
 04/09/07, 17:00,  20.4,  74,  20.2,  19.1,  18.6,   0.0,  0.32, 
 04/09/07, 18:00,  20.1,  75,  20.1,  19.3,  18.8,   0.0,  0.07, 
 04/09/07, 19:00,  18.9,  95,  19.9,  19.4,  18.8,   0.5,  0.00, 
 04/09/07, 20:00,  20.4,  84,  19.8,  19.4,  18.8,   0.5,  0.00, 
 04/09/07, 21:00,  19.7,  96,  19.6,  19.4,  18.7,   2.5,  0.00, 
 04/09/07, 22:00,  19.5,  99,  19.5,  19.4,  18.8,   3.5,  0.00, 
 04/09/07, 23:00,  19.5,  99,  19.5,  19.4,  18.7,   1.0,  0.00, 
 04/09/08, 00:00,  19.3,  99,  19.4,  19.2,  18.7,   0.5,  0.00, 
 04/09/08, 01:00,  18.9,  99,  19.4,  19.2,  18.7,   1.5,  0.00, 
 04/09/08, 02:00,  19.2,  99,  19.3,  19.2,  18.8,   0.5,  0.00, 
 04/09/08, 03:00,  18.8,  99,  19.3,  19.3,  18.8,   0.0,  0.00, 
 04/09/08, 04:00,  16.1,  99,  19.0,  19.2,  18.8,  21.0,  0.00, 
 04/09/08, 05:00,  14.5,  99,  18.8,  19.1,  18.7,   0.0,  0.00, 
 04/09/08, 06:00,  14.1,  99,  18.7,  19.1,  18.7,   0.0,  0.00, 
 04/09/08, 07:00,  14.3,  99,  18.5,  19.1,  18.7,   0.0,  0.11, 
 04/09/08, 08:00,  15.4,  97,  18.4,  19.0,  18.7,   0.0,  0.52, 
 04/09/08, 09:00,  17.8,  93,  18.4,  19.0,  18.7,   0.0,  1.61, 
 04/09/08, 10:00,  18.3,  84,  18.4,  18.9,  18.7,   0.0,  1.58, 
 04/09/08, 11:00,  20.1,  77,  18.8,  18.9,  18.7,   0.0,  2.29, 
 04/09/08, 12:00,  20.5,  77,  19.5,  18.8,  18.9,   0.0,  2.38, 
 04/09/08, 13:00,  21.6,  69,  20.2,  18.9,  18.8,   0.0,  2.77, 
 04/09/08, 14:00,  21.4,  69,  20.8,  18.9,  18.7,   0.0,  2.96, 
 04/09/08, 15:00,  19.7,  71,  20.8,  19.1,  18.7,   0.0,  2.20, 
 04/09/08, 16:00,  19.9,  74,  20.8,  19.2,  18.8,   0.0,  1.12, 
 04/09/08, 17:00,  18.6,  84,  20.8,  19.5,  18.7,   0.0,  0.58, 
 04/09/08, 18:00,  17.1,  93,  20.7,  19.6,  18.8,   0.0,  0.05, 
 04/09/08, 19:00,  16.7,  93,  20.5,  19.6,  18.8,   0.0,  0.00, 
 04/09/08, 20:00,  16.0,  99,  20.4,  19.7,  18.7,   0.0,  0.00, 
 04/09/08, 21:00,  14.9,  99,  20.2,  19.7,  18.9,   0.0,  0.00, 
 04/09/08, 22:00,  14.4,  99,  19.9,  19.7,  18.8,   0.0,  0.00, 
 04/09/08, 23:00,  13.8,  99,  19.7,  19.7,  18.8,   0.0,  0.00, 
 04/09/09, 00:00,  13.0,  99,  19.4,  19.7,  18.8,   0.0,  0.00, 
 04/09/09, 01:00,  13.7,  99,  19.1,  19.7,  18.8,   0.0,  0.00, 
 04/09/09, 02:00,  13.7,  98,  18.8,  19.6,  18.9,   0.0,  0.00, 
 04/09/09, 03:00,  13.5,  89,  18.6,  19.5,  18.8,   0.0,  0.00, 
 04/09/09, 04:00,  13.7,  84,  18.4,  19.3,  18.8,   0.0,  0.00, 
 04/09/09, 05:00,  13.7,  85,  18.1,  19.2,  18.9,   0.0,  0.00, 
 04/09/09, 06:00,  13.4,  91,  17.9,  19.1,  18.9,   0.0,  0.01, 
 04/09/09, 07:00,  16.6,  83,  17.8,  19.0,  18.9,   0.0,  0.46, 
 04/09/09, 08:00,  17.8,  83,  17.8,  18.9,  18.9,   0.0,  1.20, 
 04/09/09, 09:00,  18.7,  81,  17.9,  18.8,  19.0,   0.0,  2.00, 
 04/09/09, 10:00,  20.1,  80,  18.1,  18.8,  19.0,   0.0,  2.39, 
 04/09/09, 11:00,  21.6,  75,  18.7,  18.7,  18.8,   0.0,  3.01, 
 04/09/09, 12:00,  22.1,  77,  19.6,  18.7,  19.0,   0.0,  2.68, 
 04/09/09, 13:00,  23.0,  68,  20.3,  18.8,  18.9,   0.0,  2.96, 
 04/09/09, 14:00,  22.5,  68,  20.8,  18.9,  18.8,   0.0,  2.38, 
 04/09/09, 15:00,  22.5,  68,  21.1,  19.1,  18.8,   0.0,  1.88, 
 04/09/09, 16:00,  20.6,  74,  21.2,  19.2,  18.9,   0.0,  1.11, 
 04/09/09, 17:00,  19.7,  78,  21.2,  19.5,  18.8,   0.0,  0.91, 
 04/09/09, 18:00,  18.1,  88,  21.0,  19.7,  18.8,   0.0,  0.19, 
 04/09/09, 19:00,  17.9,  96,  20.8,  19.7,  18.7,   0.0,  0.00, 
 04/09/09, 20:00,  17.2,  99,  20.7,  19.8,  18.9,   0.0,  0.00, 
 04/09/09, 21:00,  16.1,  99,  20.5,  19.8,  18.9,   0.0,  0.00, 
 04/09/09, 22:00,  15.7,  99,  20.3,  19.8,  18.9,   0.0,  0.00, 
 04/09/09, 23:00,  15.7,  96,  20.1,  19.9,  18.9,   0.0,  0.00, 
 04/09/10, 00:00,  14.9,  99,  19.9,  19.8,  18.9,   0.0,  0.00, 
 04/09/10, 01:00,  15.4,  99,  19.6,  19.8,  18.9,   0.0,  0.00, 
 04/09/10, 02:00,  15.6,  99,  19.5,  19.7,  19.0,   0.0,  0.00, 
 04/09/10, 03:00,  16.0,  87,  19.3,  19.7,  19.0,   0.0,  0.00, 
 04/09/10, 04:00,  14.5,  99,  19.1,  19.7,  18.9,   0.0,  0.00, 
 04/09/10, 05:00,  14.6,  99,  18.9,  19.6,  19.0,   0.0,  0.00, 
 04/09/10, 06:00,  14.5,  99,  18.8,  19.6,  19.0,   0.0,  0.00, 
 04/09/10, 07:00,  14.9,  99,  18.6,  19.5,  19.1,   0.0,  0.09, 
 04/09/10, 08:00,  15.1,  99,  18.6,  19.4,  19.1,   0.0,  0.42, 
 04/09/10, 09:00,  15.1,  99,  18.6,  19.2,  19.1,   0.0,  0.19, 
 04/09/10, 10:00,  14.9,  99,  18.5,  19.2,  18.9,   0.0,  0.35, 
 04/09/10, 11:00,  15.8,  99,  18.6,  19.1,  19.1,   0.0,  0.66, 
 04/09/10, 12:00,  14.8,  99,  18.7,  19.1,  18.9,   0.0,  0.38, 
 04/09/10, 13:00,  13.8,  99,  18.7,  19.0,  19.0,   0.0,  0.11, 
 04/09/10, 14:00,  13.3,  99,  18.7,  19.0,  19.1,   0.0,  0.13, 
 04/09/10, 15:00,  13.3,  99,  18.6,  19.0,  19.1,   0.5,  0.15, 
 04/09/10, 16:00,  13.3,  99,  18.5,  19.0,  19.0,   0.0,  0.20, 
 04/09/10, 17:00,  13.0,  99,  18.4,  18.9,  19.0,   0.5,  0.07, 
 04/09/10, 18:00,  13.3,  99,  18.3,  18.9,  18.9,   0.5,  0.01, 
 04/09/10, 19:00,  12.9,  99,  18.2,  18.9,  18.8,   0.0,  0.00, 
 04/09/10, 20:00,  13.2,  99,  18.1,  18.8,  18.9,   0.0,  0.00, 
 04/09/10, 21:00,  12.8,  99,  18.0,  18.8,  18.9,   0.0,  0.00, 
 04/09/10, 22:00,  13.3,  99,  17.9,  18.7,  19.0,   0.0,  0.00, 
 04/09/10, 23:00,  14.1,  99,  17.8,  18.7,  19.0,   0.0,  0.00, 
 04/09/11, 00:00,  15.3,  99,  17.8,  18.6,  18.9,   0.0,  0.00, 
 04/09/11, 01:00,  15.8,  99,  17.7,  18.6,  18.9,   0.0,  0.00, 
 04/09/11, 02:00,  15.5,  99,  17.7,  18.5,  18.9,   0.0,  0.00, 
 04/09/11, 03:00,  15.7,  99,  17.7,  18.5,  18.9,   0.0,  0.00, 
 04/09/11, 04:00,  16.0,  99,  17.6,  18.4,  18.7,   0.0,  0.00, 
 04/09/11, 05:00,  15.7,  99,  17.6,  18.4,  18.8,   0.0,  0.00, 
 04/09/11, 06:00,  16.0,  99,  17.6,  18.3,  18.7,   0.5,  0.00, 
 04/09/11, 07:00,  16.3,  99,  17.5,  18.3,  18.7,   1.0,  0.13, 
 04/09/11, 08:00,  17.4,  99,  17.6,  18.3,  18.7,   0.0,  0.93, 
 04/09/11, 09:00,  17.9,  99,  17.7,  18.2,  18.8,   0.0,  1.50, 
 04/09/11, 10:00,  18.0,  99,  17.9,  18.2,  18.7,   0.0,  1.53, 
 04/09/11, 11:00,  18.9,  98,  18.3,  18.2,  18.6,   0.0,  0.94, 
 04/09/11, 12:00,  22.2,  84,  18.6,  18.2,  18.6,   0.0,  2.22, 
 04/09/11, 13:00,  19.7,  96,  19.3,  18.3,  18.8,   0.0,  1.26, 
 04/09/11, 14:00,  19.9,  93,  19.7,  18.4,  18.7,   0.0,  0.86, 
 04/09/11, 15:00,  20.5,  91,  19.9,  18.5,  18.7,   0.0,  1.37, 
 04/09/11, 16:00,  21.1,  88,  20.1,  18.6,  18.7,   0.0,  0.83, 
 04/09/11, 17:00,  20.3,  91,  20.2,  18.7,  18.8,   0.0,  1.14, 
 04/09/11, 18:00,  18.8,  98,  20.1,  18.8,  18.7,   0.0,  0.22, 
 04/09/11, 19:00,  17.7,  99,  20.2,  18.9,  18.6,   0.0,  0.00, 
 04/09/11, 20:00,  17.4,  99,  20.0,  19.0,  18.6,   0.5,  0.00, 
 04/09/11, 21:00,  17.3,  99,  19.9,  19.1,  18.7,   0.0,  0.00, 
 04/09/11, 22:00,  16.6,  99,  19.8,  19.1,  18.7,   0.0,  0.00, 
 04/09/11, 23:00,  16.6,  99,  19.6,  19.3,  18.7,   0.0,  0.00, 
 04/09/12, 00:00,  16.3,  99,  19.5,  19.3,  18.7,   0.0,  0.00, 
 04/09/12, 01:00,  16.4,  99,  19.3,  19.3,  18.8,   0.0,  0.00, 
 04/09/12, 02:00,  16.4,  99,  19.1,  19.1,  18.8,   0.0,  0.00, 
 04/09/12, 03:00,  15.6,  99,  19.0,  19.1,  18.8,   0.0,  0.00, 
 04/09/12, 04:00,  14.4,  99,  18.9,  19.1,  18.7,   0.0,  0.00, 
 04/09/12, 05:00,  14.9,  95,  18.7,  19.1,  18.7,   0.0,  0.00, 
 04/09/12, 06:00,  13.9,  99,  18.5,  19.0,  18.6,   0.0,  0.00, 
 04/09/12, 07:00,  15.6,  98,  18.3,  19.0,  18.7,   0.0,  0.41, 
 04/09/12, 08:00,  19.0,  79,  18.2,  18.9,  18.8,   0.0,  1.20, 
 04/09/12, 09:00,  19.4,  84,  18.3,  18.8,  18.8,   0.0,  1.93, 
 04/09/12, 10:00,  20.5,  85,  18.4,  18.8,  18.7,   0.0,  2.50, 
 04/09/12, 11:00,  20.9,  84,  18.9,  18.7,  18.7,   0.0,  2.59, 
 04/09/12, 12:00,  22.3,  81,  19.7,  18.7,  18.7,   0.0,  2.79, 
 04/09/12, 13:00,  21.6,  84,  20.6,  18.8,  18.7,   0.0,  2.31, 
 04/09/12, 14:00,  21.8,  80,  21.2,  18.9,  18.7,   0.0,  1.30, 
 04/09/12, 15:00,  21.2,  85,  21.4,  19.1,  18.8,   0.0,  0.76, 
 04/09/12, 16:00,  21.6,  87,  21.4,  19.4,  18.7,   0.0,  0.78, 
 04/09/12, 17:00,  20.2,  92,  21.4,  19.5,  18.8,   0.0,  0.49, 
 04/09/12, 18:00,  19.1,  97,  21.4,  19.7,  18.7,   0.0,  0.17, 
 04/09/12, 19:00,  18.3,  99,  21.2,  19.8,  18.8,   0.0,  0.00, 
 04/09/12, 20:00,  17.9,  99,  21.1,  19.9,  18.8,   0.0,  0.00, 
 04/09/12, 21:00,  17.7,  99,  20.9,  19.9,  18.8,   0.0,  0.00, 
 04/09/12, 22:00,  17.3,  99,  20.7,  20.0,  18.7,   0.0,  0.00, 
 04/09/12, 23:00,  17.2,  99,  20.5,  19.9,  18.8,   0.0,  0.00, 
 04/09/13, 00:00,  17.0,  99,  20.3,  19.9,  18.8,   0.0,  0.00, 
 04/09/13, 01:00,  16.5,  99,  20.2,  19.9,  18.8,   0.0,  0.00, 
 04/09/13, 02:00,  15.9,  99,  20.0,  19.9,  18.9,   0.0,  0.00, 
 04/09/13, 03:00,  15.6,  99,  19.8,  19.8,  18.9,   0.0,  0.00, 
 04/09/13, 04:00,  15.8,  99,  19.6,  19.7,  18.8,   0.0,  0.00, 
 04/09/13, 05:00,  15.9,  99,  19.5,  19.7,  18.9,   0.0,  0.00, 
 04/09/13, 06:00,  16.0,  99,  19.4,  19.7,  18.9,   0.0,  0.00, 
 04/09/13, 07:00,  17.2,  93,  19.3,  19.7,  19.0,   0.0,  0.18, 
 04/09/13, 08:00,  17.7,  94,  19.3,  19.6,  18.9,   0.0,  0.60, 
 04/09/13, 09:00,  20.1,  84,  19.3,  19.6,  18.9,   0.0,  1.64, 
 04/09/13, 10:00,  19.9,  89,  19.5,  19.4,  19.0,   0.0,  1.73, 
 04/09/13, 11:00,  21.6,  84,  19.8,  19.5,  18.8,   0.0,  1.46, 
 04/09/13, 12:00,  21.3,  84,  20.2,  19.5,  18.8,   0.0,  1.33, 
 04/09/13, 13:00,  22.3,  79,  20.5,  19.5,  19.0,   0.0,  1.45, 
 04/09/13, 14:00,  21.8,  81,  20.8,  19.6,  19.0,   0.0,  1.78, 
 04/09/13, 15:00,  21.0,  87,  21.0,  19.7,  19.0,   0.0,  0.76, 
 04/09/13, 16:00,  19.8,  91,  21.1,  19.8,  19.0,   0.0,  0.62, 
 04/09/13, 17:00,  19.4,  95,  21.1,  19.8,  18.8,   0.0,  0.62, 
 04/09/13, 18:00,  18.3,  99,  21.1,  19.9,  19.0,   0.0,  0.22, 
 04/09/13, 19:00,  18.0,  99,  20.8,  19.9,  19.0,   0.0,  0.00, 
 04/09/13, 20:00,  17.8,  99,  20.7,  19.9,  18.9,   0.0,  0.00, 
 04/09/13, 21:00,  17.9,  98,  20.5,  20.0,  19.0,   0.0,  0.00, 
 04/09/13, 22:00,  17.5,  99,  20.3,  20.0,  19.1,   0.0,  0.00, 
 04/09/13, 23:00,  17.5,  99,  20.1,  19.9,  19.1,   0.0,  0.00, 
 04/09/14, 00:00,  17.4,  99,  20.0,  19.9,  19.1,   0.0,  0.00, 
 04/09/14, 01:00,  17.0,  99,  19.9,  19.9,  18.9,   0.0,  0.00, 
 04/09/14, 02:00,  17.1,  99,  19.8,  19.9,  19.1,   0.0,  0.00, 
 04/09/14, 03:00,  17.1,  99,  19.7,  19.8,  19.1,   0.0,  0.00, 
 04/09/14, 04:00,  16.7,  99,  19.6,  19.7,  19.0,   0.0,  0.00, 
 04/09/14, 05:00,  16.7,  99,  19.5,  19.7,  19.0,   0.0,  0.00, 
 04/09/14, 06:00,  16.8,  99,  19.4,  19.7,  19.1,   0.0,  0.00, 
 04/09/14, 07:00,  16.9,  99,  19.3,  19.7,  19.1,   4.0,  0.00, 
 04/09/14, 08:00,  17.0,  99,  19.0,  19.6,  19.0,   6.0,  0.00, 
 04/09/14, 09:00,  17.0,  99,  18.9,  19.6,  18.9,   7.5,  0.08, 
 04/09/14, 10:00,  17.3,  99,  18.7,  19.4,  18.9,   5.0,  0.25, 
 04/09/14, 11:00,  17.8,  99,  18.7,  19.3,  19.0,   1.5,  0.78, 
 04/09/14, 12:00,  18.8,  98,  18.9,  19.3,  19.0,   0.0,  1.65, 
 04/09/14, 13:00,  18.4,  99,  19.4,  19.3,  19.0,   0.5,  1.18, 
 04/09/14, 14:00,  19.2,  97,  19.7,  19.3,  19.1,   0.5,  1.25, 
 04/09/14, 15:00,  18.3,  98,  19.9,  19.2,  19.0,   1.0,  0.88, 
 04/09/14, 16:00,  18.2,  94,  20.0,  19.4,  19.0,   0.0,  1.67, 
 04/09/14, 17:00,  18.3,  96,  20.0,  19.4,  19.0,   0.0,  1.09, 
 04/09/14, 18:00,  17.6,  87,  19.9,  19.5,  18.9,   0.0,  0.24, 
 04/09/14, 19:00,  16.7,  85,  19.8,  19.5,  19.0,   0.0,  0.00, 
 04/09/14, 20:00,  14.5,  99,  19.6,  19.5,  19.1,   0.0,  0.00, 
 04/09/14, 21:00,  13.8,  99,  19.3,  19.5,  19.0,   0.0,  0.00, 
 04/09/14, 22:00,  14.2,  99,  19.0,  19.4,  19.0,   0.0,  0.00, 
 04/09/14, 23:00,  13.7,  99,  18.8,  19.4,  19.1,   0.0,  0.00, 
 04/09/15, 00:00,  12.1,  99,  18.7,  19.3,  19.0,   0.0,  0.00, 
 04/09/15, 01:00,  10.5,  99,  18.5,  19.2,  19.0,   0.0,  0.00, 
 04/09/15, 02:00,   9.5,  99,  18.3,  19.2,  19.1,   0.0,  0.00, 
 04/09/15, 03:00,   8.4,  99,  18.1,  19.1,  19.0,   0.0,  0.00, 
 04/09/15, 04:00,   8.5,  99,  17.8,  19.0,  19.0,   0.0,  0.00, 
 04/09/15, 05:00,   9.0,  99,  17.6,  18.9,  19.0,   0.0,  0.00, 
 04/09/15, 06:00,   8.1,  99,  17.4,  18.8,  19.0,   0.0,  0.00, 
 04/09/15, 07:00,   9.3,  99,  17.3,  18.7,  19.0,   0.0,  0.36, 
 04/09/15, 08:00,  14.3,  83,  17.1,  18.6,  19.0,   0.0,  1.29, 
 04/09/15, 09:00,  15.6,  75,  17.1,  18.5,  19.1,   0.0,  2.02, 
 04/09/15, 10:00,  18.8,  76,  17.2,  18.4,  19.1,   0.0,  2.60, 
 04/09/15, 11:00,  19.5,  83,  17.7,  18.4,  19.0,   0.0,  3.05, 
 04/09/15, 12:00,  21.3,  81,  18.6,  18.3,  19.0,   0.0,  2.62, 
 04/09/15, 13:00,  20.2,  82,  19.5,  18.3,  18.9,   0.0,  3.00, 
 04/09/15, 14:00,  21.6,  79,  20.2,  18.4,  18.9,   0.0,  2.63, 
 04/09/15, 15:00,  21.5,  79,  20.4,  18.6,  19.0,   0.0,  2.59, 
 04/09/15, 16:00,  19.4,  88,  20.5,  18.8,  18.8,   0.0,  1.50, 
 04/09/15, 17:00,  19.1,  88,  20.5,  18.9,  18.7,   0.0,  0.95, 
 04/09/15, 18:00,  17.4,  92,  20.4,  19.1,  18.9,   0.0,  0.11, 
 04/09/15, 19:00,  16.4,  98,  20.3,  19.3,  18.9,   0.0,  0.00, 
 04/09/15, 20:00,  15.7,  99,  20.0,  19.3,  18.8,   0.0,  0.00, 
 04/09/15, 21:00,  15.1,  99,  19.8,  19.3,  18.8,   0.0,  0.00, 
 04/09/15, 22:00,  15.3,  98,  19.7,  19.4,  18.8,   0.0,  0.00, 
 04/09/15, 23:00,  14.8,  99,  19.5,  19.4,  18.7,   0.0,  0.00, 
 04/09/16, 00:00,  14.4,  99,  19.4,  19.5,  18.8,   0.0,  0.00, 
 04/09/16, 01:00,  13.7,  99,  19.1,  19.4,  18.8,   0.0,  0.00, 